Regional Weather Roundup
Issued by NWS

Home | Current Version | Previous Version | Text Only | Print | Product List | Glossary On
Versions: 1 2 3 4 5 6 7 8 9 10 11 12 13 14 15 16 17 18 19 20 21 22 23 24 25 26 27 28 29 30 31 32 33 34 35 36 37 38 39 40 41 42 43 44 45 46 47 48 49 50
839
ASUS44 KLUB 232010
RWRTX
WEST TEXAS WEATHER ROUNDUP
NATIONAL WEATHER SERVICE LUBBOCK TX
200 PM CST MON JAN 23 2017

NOTE: "FAIR" INDICATES FEW OR NO CLOUDS BELOW 12,000 FEET WITH NO
SIGNIFICANT WEATHER AND/OR OBSTRUCTIONS TO VISIBILITY.

TXZ004-006>008-010-012-014-016-OKZ002-232100-
TEXAS PANHANDLE/OKLAHOMA PANHANDLE

CITY           SKY/WX    TMP DP  RH WIND       PRES   REMARKS
AMARILLO       SUNNY     67  31  26 W23G35    29.73F
BORGER         SUNNY     66  31  27 W16G26    29.70F
CANADIAN       SUNNY     68  32  26 SW15G21   29.68F
DALHART        SUNNY     67  28  23 SW26G35   29.71F
DUMAS          SUNNY     64  30  28 W32G38    29.71F
GUYMON         SUNNY     70  23  17 W25G32    29.62F
HEREFORD       SUNNY     69  33  25 W22G31    29.77F
PAMPA          SUNNY     67  31  26 W14       29.71F
PERRYTON       SUNNY     65  37  34 W21       29.66F
$$

TXZ026-029-035-045-048-232100-
SOUTHERN PANHANDLE/SOUTH PLAINS/ROLLING PLAINS

CITY           SKY/WX    TMP DP  RH WIND       PRES   REMARKS
CHILDRESS      SUNNY     71  34  25 W12G21    29.76F
SEMINOLE       SUNNY     68  25  19 W23G29    29.88F
LUBBOCK        MOSUNNY   71  31  22 W21       29.81F
PLAINVIEW      SUNNY     68  32  26 W18G25    29.79F
SNYDER         SUNNY     67  37  32 SW15      29.85F
$$

TXZ052-054-060>062-072-078-127-140-154-169-232100-
PERMIAN BASIN/CONCHO VALLEY/BIG COUNTRY/EDWARDS PLATEAU

CITY           SKY/WX    TMP DP  RH WIND       PRES   REMARKS
ABILENE        SUNNY     68  35  29 SW17      29.84F
BIG SPRING     SUNNY     70  35  27 SW21G26   29.89F
BROWNWOOD      SUNNY     72  34  25 SW14G20   29.87F
JUNCTION       SUNNY     73  33  23 SW15G22   29.89F
MIDLAND        SUNNY     74  27  17 W22G29    29.88F
ODESSA         SUNNY     72  29  20 W17G28    29.89F
SAN ANGELO     SUNNY     75  36  24 SW22      29.87F
SONORA         SUNNY     72  30  21 SW14      29.95F
SWEETWATER     SUNNY     71  36  27 SW17G23   29.87F
WINK           SUNNY     74  25  16 W16G28    29.86F
$$

TXZ055-058-074-075-080-082-232100-
FAR WEST/SOUTHWEST MOUNTAINS/TRANS PECOS

CITY           SKY/WX    TMP DP  RH WIND       PRES   REMARKS
ALPINE         SUNNY     70  31  23 SW26G33   30.01F
EL PASO        MOSUNNY   63  32  31 S13       29.94F
FORT STOCKTON  SUNNY     80  29  15 W16G24    29.88F
GUADALUPE PASS SUNNY     61  31  32 W31       29.97F
MARFA          SUNNY     67  31  26 S15       30.00F
PECOS          SUNNY     77  32  19 W18G26    29.86F
$$

TXZ014-016-019-021>030-083-232100
TEXAS TECH WEST TEXAS MESONET/TEXAS PANHANDLE/NORTHERN SOUTH PLAINS

CITY           SKY/WX    TMP DP  RH WIND       PRES   REMARKS
ABERNATHY 5ENE   N/A     69  33  27 SW14      29.82F
AMARILLO 9NNE    N/A     68  31  25 W20       29.72F
AMARILLO 7SSE    N/A     68  34  28 W21       29.75F
AMHERST 1NE      N/A     69  31  23 W15       29.80F
BOOTLEG 11WNW    N/A     63  31  30 SW26      29.81F
CANADIAN 6E      N/A     67  32  27 SW18      29.66F
CAPROCK CYN SP   N/A     69  33  26 W16       29.76F
CHILDRESS 2NNE   N/A     72  33  24 SW15      29.75F
CLARENDON 2WSW   N/A     68  32  26 SW15      29.74F
CLAUDE 12SW      N/A     66  32  28 W23       29.74F
DIMMITT 2NE      N/A     65  33  30 SW22      29.78F
FLOYDADA 2NNE    N/A     69  30  23 SW20      29.79F
FRIONA 2NE       N/A     65  30  27 W21G30    29.79F
GOODLETT 3W      N/A     72  32  23 SW9       29.74F
HART 3N          N/A     66  33  29 W22       29.79F
HEREFORD 2NW     N/A     65  31  27 W26       29.76F
MCLEAN 1E        N/A     67  33  27 SW15G26   29.71F
MEMPHIS 1NE      N/A     69  33  26 SW16      29.74F
MULESHOE 2SSW    N/A     69  28  21 W17       29.80F
OLTON 6S         N/A     69  30  24 W16       29.80F
PALO DURO SP     N/A     68  32  26 W22       29.75F
PAMPA 2E         N/A     66  31  27 W16       29.69F
PLAINVIEW 1S     N/A     68  33  28 W17       29.79F
SILVERTON 7ESE   N/A     68  33  26 SW22      29.76F
TULIA 2ENE       N/A     66  37  33 SW22      29.77F
TURKEY 2WSW      N/A     71  35  27 SW17      29.75F
UMBARGER 3NNE    N/A     65  37  35 W25       29.76F
$$

TXZ033>036-039>041-045>048-232100
TEXAS TECH WEST TEXAS MESONET/SOUTH PLAINS

CITY           SKY/WX    TMP DP  RH WIND       PRES   REMARKS
AIKEN 3WSW       N/A     68  35  29 W21       29.80F
ANDREWS 2NE      N/A     71  26  18 SW17      29.88F
ANTON 6SSW       N/A     71  34  25 SW17      29.81F
BROWNFIELD 2S    N/A     71  32  23 W15G26    29.83F
DENVR CTY 7WNW   N/A     65  26  23 SW17      29.86F
GAIL 2ESE        N/A     74  29  19 W16       29.83F
LAMESA 2SE       N/A     70  30  22 SW18      29.85F
LEVELLAND 4S     N/A     71  28  20 SW14      29.82F
LUBBOCK 3WNW     N/A     71  31  22 SW12      29.81F
MORTON 1ENE      N/A     69  29  22 SW16      29.82F
ODONNELL 1N      N/A     70  29  21 SW23      29.84F
PLAINS 3N        N/A     69  28  21 SW22      29.84F
RALLS 1SE        N/A     69  33  26 SW16      29.82F
REESE CENTER     N/A     69  29  23 W15       29.82F
SEAGRAVES 1SW    N/A     69  26  20 W21       29.85F
SEMINOLE 2NNE    N/A     67  24  19 W20       29.87F
SLATON 2NE       N/A     70  32  24 W14       29.82F
SNYDER 3E        N/A     68  37  31 SW12      29.84F
SUNDOWN 8SW      N/A     70  29  21 SW16      29.83F
TAHOKA 3NNE      N/A     72  29  20 SW17      29.82F
WOLFFORTH 6SSW   N/A     71  30  22 SW14      29.82F
$$

TXZ031-032-036>038-042>044-232100-
TEXAS TECH WEST TEXAS MESONET/ROLLING PLAINS

CITY           SKY/WX    TMP DP  RH WIND       PRES   REMARKS
ASPERMONT 3NE    N/A     73  33  22 SW14      29.80F
FLUVANNA 3WNW    N/A     70  31  23 SW17      29.83F
GRAHAM 5SSW      N/A     70  32  24 SW12      29.83F
GUTHRIE 10WSW    N/A     71  32  24 S10       29.78F
HASKELL 1NW      N/A     69  30  23 SW12      29.81F
JAYTON 1SSE      N/A     71  32  24 SW16      29.80F
KNOX CITY 3NW    N/A     70  30  23 SW12      29.80F
LK A HENRY 1NW   N/A     72  33  24 W12       29.81F
NORTHFIELD 1S    N/A     73  37  26 SW13      29.75F
ODELL 4ENE       N/A     65  35  32 S9        29.78F
PADUCAH 10SW     N/A     71  33  24 SW16      29.76F
POST 1NE         N/A     72  30  21 SW18      29.81F
RRING SPRGS 3N   N/A     71  36  27 SW15      29.78F
SEYMOUR 3NW      N/A     67  34  29 S16       29.80F
SPUR 1W          N/A     70  32  24 SW14      29.79F
WEINERT 2NNE     N/A     69  33  27 S13       29.81F
WHITE RVR 6NE    N/A     72  32  23 SW15      29.79F
$$

TXZ052-054-060>062-072-078-127-140-154-169-232100-
TEXAS TECH WEST TEXAS MESONET/PERMIAN BASIN/
CONCHO VALLEY/BIG COUNTRY/EDWARDS PLATEAU

CITY           SKY/WX    TMP DP  RH WIND       PRES   REMARKS
COYANOSA 2N      N/A     76  32  20 SW7       29.87F
JUNCTION 1SSW    N/A     73  34  24 SW13      29.90F
MERTZON 3NNE     N/A     76  38  26 SW15      29.88F
SAN ANGELO 7NW   N/A     75  33  21 SW15      29.86F
STRLNG CT 4WSW   N/A     74  36  24 SW17      29.87F
ST LAWRNCE 5SW   N/A     71  35  26 W17       29.88F
SWEETWATR 11SW   N/A     70  38  30 SW20      29.86F
WALL 1E          N/A     73  37  26 CALM      29.88F
$$

TXZ055-058-074-075-080-082-232100-
TEXAS TECH WEST TEXAS MESONET/FAR WEST/SOUTHWEST MOUNTAINS/TRANS PECOS

CITY           SKY/WX    TMP DP  RH WIND       PRES   REMARKS
PRSMN GAP BBNP   N/A     77  29  16 S16       29.92F
GUADLPE MTN NP   N/A     58  24  27 W14       29.97F
$$




USA.gov is the U.S. government's official web portal to all federal, state and local government web resources and services.